Aérodrome :
LOGIN :

S'inscrire | Disclaimer

   EN    FR    IT 

 










Légende :    VFR   VFR Marginal   IFR   IFR Intensif   IFR Très Intensif
Visi : 
Plafond : 
>= 8 km
>= 3000ft
5 à 8 km
1000 à 3000 ft
1500m à 5 km
500 à 1000 ft
800 à 1500m
200 à 500 ft
< 800m
< 200 ft
Symboles :   Orages  Brouillard  Fortes neiges  Fortes précipitations  Vent > 20 kt
SIGMETs :   Divers  Orages  Givrage  Turbulence  Onde Orograph.  Cendres Volcan.







- Altitude de l'aérodrome : 102 ft
- Code IATA : EXT
- Voir les cartes d'approche


EGTE - Exeter

DERNIER METAR :
  • 241720Z 15007KT 130V190 CAVOK 20/15 Q1025

METARs EXPIRÉS :
  • 241650Z 15007KT CAVOK 20/15 Q1025
  • 241620Z 16006KT 130V210 CAVOK 21/15 Q1025
  • 241550Z 18007KT 140V210 CAVOK 21/15 Q1025
  • 241520Z 19006KT 120V230 9999 FEW030 21/15 Q1025
  • 241450Z 16006KT 120V190 9999 FEW030 21/15 Q1025

TAF TAF EGTE
Valide du 24 à 18h jusqu'au 25 à 03h UTC


241704Z 2418/2503 16003KT 9999 SCT030
Pas de NOTAMs connus pour ce terrain.



MET'MAP, la Météo Aéronautique d'un coup d'oeil ! - Copyright ORBIFLY Décembre 2007 - Disclaimer

ORBIFLY MET'MAP TEAM :

Programmation & Développement : Alexandra Zaïnal
Conception & Développement : Baudouin d'Aumeries
Co-Programmation & Développement : Marc-Olivier Méhu
Soutien technique & logistique : Manuel Goepfert

Contact : metmap@orbifly.com




SOURCES & CREDITS :

   NOAA